Wind_Speed
28 28 27 26 25 24 22 22 21 21 20 19 19 18 17 17 17 17 17 17 17 17 16 15 15 15 15 15 15 15 16 16 17 17 18 19 20 20 21 21 21 22 22
29 29 28 27 26 25 23 23 23 22 21 20 20 19 18 19 18 19 19 19 19 19 19 18 18 18 18 18 18 19 19 19 20 20 21 22 22 23 23 24 24 25 26
30 30 30 29 26 26 25 24 24 24 22 21 21 20 20 20 20 20 20 21 21 21 21 21 21 21 20 20 21 21 21 22 22 23 24 25 25 26 27 27 28 28 29
30 29 29 29 28 28 26 25 24 24 23 23 23 23 22 21 21 22 22 22 23 22 22 23 23 23 23 23 23 24 24 24 25 26 27 27 28 29 30 30 31 31 32
29 29 27 28 27 27 26 25 25 25 25 24 24 24 23 23 22 22 22 23 24 24 25 25 25 25 25 26 26 27 28 28 28 29 30 31 31 32 33 34 34 35 35
26 25 25 26 25 25 25 24 25 24 25 25 25 25 24 24 24 24 24 24 25 25 26 26 27 27 27 28 29 29 30 31 31 32 33 33 34 35 36 37 37 38 38
22 23 23 24 23 23 25 24 25 25 25 25 26 26 26 25 26 25 26 26 26 27 27 27 28 28 29 29 30 31 32 33 34 34 35 36 37 38 38 39 40 40 41
22 22 23 24 23 22 23 24 24 25 26 26 26 27 28 28 29 29 29 29 29 29 29 29 29 30 31 32 32 33 34 35 36 37 38 39 40 40 40 41 42 42 43
22 21 22 23 22 22 22 23 24 25 25 26 27 29 30 30 30 30 30 31 30 30 30 31 32 33 34 35 36 36 37 38 39 40 41 41 41 42 42 42 43 44 45
20 20 19 19 20 20 22 23 24 25 26 26 28 29 30 30 31 32 31 31 31 31 32 33 34 36 37 38 38 38 39 39 40 40 40 41 42 42 43 44 44 45 46
19 18 17 16 18 18 20 21 23 25 26 27 28 29 30 31 32 33 34 33 33 34 34 35 36 37 39 39 39 39 39 40 40 41 41 42 43 44 45 45 46 47 48
18 17 17 18 18 18 19 20 21 22 24 26 27 29 31 31 32 33 34 34 35 35 36 37 38 39 39 39 39 39 39 40 41 42 42 43 44 45 46 47 48 48 49
20 20 19 19 20 20 21 21 22 23 25 26 28 29 30 31 31 32 32 33 34 35 36 37 38 38 38 38 39 39 40 41 41 42 43 44 45 46 47 48 48 49 50
22 23 22 22 21 21 22 22 23 24 24 25 26 27 29 30 30 30 32 33 34 36 36 36 37 37 38 38 38 39 40 41 41 43 44 45 46 47 47 47 48 48 49
21 21 22 21 21 22 22 22 23 23 24 25 26 27 28 29 30 31 32 32 33 33 34 34 35 35 36 37 38 39 40 42 43 44 45 45 46 46 46 47 47 47 47
22 21 20 21 22 22 21 22 23 24 25 25 26 27 27 28 28 30 30 30 31 31 32 33 35 36 37 37 39 40 42 43 44 44 44 45 45 45 45 45 45 45 45
22 21 20 20 21 21 22 22 22 22 23 23 24 25 26 26 28 28 29 29 30 31 33 34 35 36 37 38 39 41 42 42 42 43 43 42 42 42 42 42 41 41 40
21 21 21 21 21 21 22 22 23 23 23 24 24 25 26 27 28 28 28 29 30 32 33 34 34 35 37 38 39 40 40 40 40 39 39 39 39 38 38 37 36 35 34
21 21 21 21 21 21 22 22 23 23 24 24 25 25 26 27 28 28 29 30 31 32 33 34 34 36 37 37 37 37 37 36 36 36 35 35 34 33 32 31 31 30 30
21 21 21 21 21 21 22 22 23 24 25 25 25 26 26 27 28 29 30 31 32 32 33 34 34 35 35 35 34 34 33 32 32 32 32 31 30 29 28 28 27 28 27
21 21 21 21 22 23 23 24 24 25 25 25 26 26 27 28 29 29 30 31 31 32 32 32 32 32 32 31 30 30 29 29 29 28 28 27 26 26 25 25 25 25 24
20 21 21 21 21 22 22 23 23 24 24 25 25 26 26 27 28 28 29 29 30 30 30 30 30 29 28 28 27 27 27 26 25 24 24 23 23 23 23 22 22 22 22
18 19 19 19 19 19 20 21 22 22 23 24 25 25 26 27 27 27 28 28 28 28 28 27 27 27 27 26 25 25 24 23 23 22 22 21 21 21 20 20 20 20 21
17 17 17 18 19 20 20 21 21 22 23 23 24 25 25 26 26 25 25 25 25 25 25 25 25 25 25 24 23 23 22 21 21 20 20 19 19 19 19 19 18 19 19
17 17 17 18 18 19 20 19 19 20 21 22 22 23 24 24 24 24 23 23 23 23 23 23 23 23 23 22 21 21 20 20 19 19 18 18 18 17 17 17 17 17 18
16 16 16 17 16 17 17 18 18 19 19 19 20 21 21 22 22 22 21 21 21 21 22 22 21 21 21 20 20 19 19 18 18 17 17 17 16 15 15 15 15 16 16
Wind_Direction
256 255 253 252 252 252 251 250 250 248 247 247 249 249 249 249 249 251 255 258 259 262 265 271 274 276 277 279 280 282 283 281 281 280 281 281 282 284 284 285 286 286 285
255 254 252 250 250 250 251 250 248 246 246 247 249 250 250 249 250 252 256 258 261 262 264 268 272 275 276 277 278 280 280 279 280 280 280 281 282 283 284 284 284 284 284
249 254 252 249 248 249 251 249 248 246 246 247 248 249 250 252 253 255 257 258 260 262 265 268 271 273 275 277 278 279 280 280 281 282 281 280 281 281 281 281 282 283 282
248 252 251 247 246 248 247 247 247 244 244 246 247 248 250 253 255 256 257 259 261 263 266 270 272 273 274 277 278 278 279 280 281 281 281 281 281 281 282 282 282 282 282
245 245 247 246 245 244 242 245 243 243 244 246 246 248 250 251 253 256 258 260 262 264 268 271 272 274 276 278 279 280 280 280 281 282 283 282 281 282 283 282 282 282 282
242 241 245 242 240 241 241 245 242 243 243 244 245 248 251 253 253 256 258 261 263 265 267 270 272 274 276 278 280 281 280 280 281 282 283 283 282 283 283 283 282 282 282
245 243 244 241 241 240 242 245 245 244 243 244 246 249 251 254 256 258 259 261 263 265 268 270 272 274 277 279 280 281 282 281 282 282 282 283 283 284 284 284 283 282 282
246 245 244 243 239 242 248 248 248 246 245 246 248 249 252 256 259 260 261 262 264 266 268 269 271 274 277 279 280 280 282 282 282 283 284 284 285 286 285 285 284 283 283
244 243 244 243 240 242 246 247 250 247 246 248 250 251 253 256 260 262 263 264 265 267 270 272 273 275 278 279 281 282 282 283 284 285 285 286 286 287 287 287 286 286 285
252 249 249 245 243 243 245 247 249 248 250 250 251 252 253 256 261 262 264 266 266 270 272 274 276 277 278 280 282 283 284 284 286 287 288 289 289 289 288 288 288 288 288
253 251 251 251 247 249 251 252 253 252 253 253 253 253 255 258 261 263 265 268 269 272 274 275 276 277 278 280 282 283 285 286 287 288 289 289 290 290 290 290 290 289 289
250 253 254 253 254 257 258 257 256 256 255 254 256 257 258 260 263 264 265 267 270 272 273 274 276 278 280 281 283 285 286 287 288 289 290 290 291 291 291 291 290 290 289
251 252 254 256 256 256 258 260 259 259 258 258 260 260 261 263 265 266 267 268 270 272 274 275 278 279 281 282 284 286 288 289 290 291 291 292 292 292 292 292 291 290 289
254 255 256 257 257 258 259 262 263 262 263 263 263 264 264 265 266 267 268 269 271 273 276 277 279 281 282 285 287 289 290 290 291 291 292 292 292 293 293 292 291 291 289
257 255 256 258 259 261 263 264 262 262 263 263 263 265 266 266 266 268 271 274 275 276 277 280 282 284 286 289 290 290 290 291 292 293 293 293 293 293 293 292 292 291 291
257 257 261 262 263 265 267 265 262 262 263 265 266 267 268 269 271 273 275 276 276 277 279 282 284 285 286 289 290 290 291 292 293 293 293 293 293 293 293 292 292 292 292
260 261 262 265 266 267 268 267 265 266 267 268 269 271 272 272 273 274 275 275 278 280 281 283 284 286 289 290 290 291 292 292 292 292 293 293 293 293 294 294 293 293 294
261 262 263 265 266 268 270 270 270 270 269 271 273 274 274 276 276 277 277 279 281 282 284 286 287 288 289 290 291 292 292 292 292 293 293 293 294 295 295 296 296 297 297
260 263 265 265 266 268 268 269 270 269 271 272 274 276 278 279 278 279 281 283 284 286 287 288 288 288 289 290 291 292 292 293 293 294 294 295 295 296 297 299 300 300 301
259 261 263 264 266 268 269 269 270 272 272 273 274 276 277 278 279 281 283 284 285 286 287 287 287 288 289 291 292 293 294 294 293 294 295 296 297 298 300 301 302 303 304
260 260 262 264 265 268 269 271 271 272 273 273 274 276 278 279 281 282 284 285 286 286 286 287 287 289 290 291 292 293 294 294 294 294 296 296 297 300 301 302 304 306 308
260 260 261 264 266 268 270 271 273 273 273 276 277 279 280 281 283 284 285 285 286 286 286 287 287 288 289 290 291 291 292 293 294 295 296 296 297 300 302 305 308 311 312
263 264 264 264 266 268 271 272 273 274 276 277 278 279 281 281 282 284 284 284 285 286 286 285 286 287 288 288 289 289 291 292 294 295 296 296 297 300 303 306 310 313 316
264 265 266 268 270 271 271 272 273 273 275 276 278 279 280 281 283 283 283 284 285 285 286 285 286 287 287 287 288 289 291 291 293 294 295 296 297 300 303 307 311 316 320
259 260 264 264 266 267 268 271 272 275 277 279 280 280 281 282 283 283 283 284 286 287 287 287 286 286 287 287 289 290 291 291 292 293 294 297 300 301 304 308 312 318 323
259 260 262 264 265 268 269 271 273 275 277 280 283 283 283 283 283 283 283 284 286 287 288 288 287 288 288 289 290 291 291 291 292 293 295 297 299 300 304 309 314 319 325
Height
5861 5861 5862 5863 5865 5866 5867 5868 5869 5870 5871 5872 5873 5874 5875 5876 5876 5877 5877 5878 5878 5878 5878 5878 5878 5877 5877 5877 5876 5876 5875 5875 5874 5873 5873 5872 5872 5871 5870 5870 5869 5868 5867
5855 5856 5857 5858 5859 5860 5862 5863 5864 5865 5867 5868 5869 5870 5871 5871 5872 5873 5874 5874 5874 5874 5874 5874 5874 5874 5873 5873 5873 5872 5872 5871 5870 5870 5869 5868 5867 5867 5866 5865 5864 5863 5862
5848 5849 5851 5852 5853 5854 5856 5858 5859 5860 5862 5864 5865 5865 5866 5867 5868 5869 5869 5870 5870 5870 5870 5870 5870 5869 5869 5869 5868 5868 5868 5867 5866 5865 5864 5864 5863 5862 5861 5860 5859 5857 5856
5842 5843 5844 5846 5847 5849 5850 5852 5854 5855 5857 5858 5859 5860 5861 5863 5863 5864 5865 5865 5865 5866 5866 5865 5865 5865 5864 5864 5863 5863 5863 5862 5861 5860 5859 5858 5857 5856 5855 5853 5852 5851 5849
5835 5837 5838 5839 5841 5843 5844 5846 5848 5849 5851 5852 5854 5855 5856 5857 5858 5859 5859 5860 5860 5861 5861 5861 5860 5860 5859 5858 5858 5858 5857 5856 5855 5854 5853 5851 5850 5849 5848 5846 5845 5843 5842
5829 5830 5832 5833 5835 5837 5839 5840 5842 5843 5845 5847 5849 5850 5851 5852 5852 5853 5854 5854 5855 5855 5855 5855 5855 5854 5853 5853 5852 5851 5850 5850 5848 5847 5846 5844 5843 5841 5840 5838 5836 5834 5833
5823 5825 5826 5829 5830 5831 5834 5835 5836 5838 5840 5841 5843 5844 5844 5846 5847 5847 5848 5848 5849 5849 5849 5849 5848 5847 5847 5846 5845 5844 5843 5842 5841 5839 5838 5836 5834 5832 5831 5829 5827 5825 5823
5818 5819 5821 5823 5825 5826 5828 5830 5831 5832 5834 5835 5836 5837 5838 5840 5840 5841 5841 5842 5842 5843 5843 5842 5841 5841 5840 5839 5838 5837 5836 5834 5833 5831 5829 5828 5826 5824 5821 5819 5817 5814 5812
5813 5814 5816 5817 5819 5821 5822 5824 5825 5826 5828 5829 5830 5831 5832 5833 5833 5834 5834 5835 5835 5836 5836 5835 5834 5833 5832 5831 5830 5829 5827 5826 5824 5822 5820 5818 5816 5814 5811 5809 5806 5803 5801
5807 5809 5810 5812 5813 5815 5817 5818 5819 5821 5822 5822 5823 5825 5826 5827 5827 5827 5827 5827 5828 5828 5827 5827 5826 5825 5824 5823 5821 5820 5818 5816 5815 5813 5810 5808 5805 5803 5800 5798 5795 5792 5788
5802 5804 5805 5807 5808 5809 5811 5812 5814 5815 5816 5816 5817 5818 5818 5819 5820 5821 5820 5820 5820 5820 5819 5818 5817 5816 5815 5814 5812 5810 5809 5807 5805 5803 5800 5797 5795 5792 5789 5786 5783 5779 5776
5798 5799 5800 5802 5802 5804 5805 5806 5807 5808 5809 5810 5810 5811 5811 5812 5812 5813 5813 5812 5812 5812 5811 5810 5808 5807 5806 5804 5803 5801 5799 5797 5795 5792 5790 5787 5784 5780 5777 5773 5770 5766 5762
5792 5794 5795 5796 5797 5798 5799 5800 5801 5802 5802 5803 5803 5804 5804 5805 5805 5805 5805 5804 5804 5803 5802 5801 5800 5798 5797 5795 5793 5792 5790 5787 5785 5782 5779 5775 5772 5768 5765 5761 5757 5753 5749
5787 5788 5789 5790 5791 5792 5793 5794 5795 5795 5796 5796 5796 5797 5797 5797 5797 5797 5797 5797 5796 5795 5794 5793 5792 5790 5788 5786 5784 5782 5780 5777 5774 5771 5768 5764 5760 5757 5753 5749 5744 5740 5736
5781 5782 5783 5784 5785 5786 5786 5787 5787 5788 5789 5789 5789 5789 5790 5790 5790 5790 5789 5789 5788 5787 5785 5784 5783 5781 5779 5777 5775 5772 5770 5767 5763 5760 5756 5752 5749 5745 5741 5736 5731 5727 5723
5775 5776 5777 5778 5779 5780 5780 5781 5781 5781 5781 5782 5782 5782 5783 5782 5782 5782 5782 5781 5780 5779 5777 5775 5774 5772 5770 5768 5765 5762 5759 5756 5752 5748 5745 5741 5737 5733 5729 5724 5720 5716 5711
5769 5770 5771 5772 5773 5774 5774 5774 5774 5774 5775 5775 5775 5775 5775 5775 5775 5775 5774 5773 5772 5770 5769 5767 5765 5763 5760 5758 5755 5752 5749 5745 5741 5737 5733 5730 5726 5722 5718 5713 5709 5705 5700
5763 5764 5765 5766 5767 5767 5767 5768 5768 5768 5768 5769 5769 5768 5768 5768 5768 5767 5766 5765 5763 5762 5760 5758 5756 5753 5751 5748 5745 5742 5738 5734 5731 5727 5723 5719 5716 5712 5708 5704 5699 5695 5691
5756 5757 5759 5760 5760 5761 5761 5761 5762 5762 5762 5762 5762 5761 5761 5760 5759 5759 5757 5756 5755 5753 5751 5749 5746 5744 5741 5738 5735 5732 5728 5725 5721 5717 5714 5710 5706 5703 5699 5695 5691 5688 5684
5750 5751 5752 5753 5754 5754 5754 5755 5755 5755 5755 5754 5754 5754 5753 5752 5751 5750 5749 5747 5745 5743 5741 5739 5737 5734 5731 5728 5726 5723 5719 5716 5713 5709 5705 5702 5698 5695 5692 5689 5685 5681 5678
5743 5745 5746 5747 5747 5748 5748 5748 5748 5748 5747 5747 5746 5746 5745 5744 5742 5741 5740 5738 5736 5734 5732 5730 5727 5725 5722 5720 5717 5714 5711 5708 5705 5702 5698 5695 5692 5689 5686 5683 5679 5676 5672
5737 5738 5739 5740 5740 5741 5741 5741 5741 5741 5740 5739 5739 5738 5737 5736 5734 5733 5731 5729 5727 5725 5723 5721 5718 5716 5714 5712 5709 5706 5704 5701 5698 5696 5692 5689 5686 5684 5681 5677 5674 5671 5667
5731 5732 5733 5733 5734 5734 5734 5734 5734 5734 5733 5732 5732 5731 5729 5728 5726 5725 5723 5721 5719 5717 5715 5713 5711 5708 5706 5704 5702 5700 5697 5694 5692 5689 5687 5684 5681 5679 5676 5673 5670 5666 5663
5726 5727 5727 5728 5728 5728 5728 5728 5728 5727 5726 5725 5724 5723 5722 5720 5718 5717 5715 5713 5711 5709 5707 5705 5703 5701 5699 5697 5695 5693 5690 5688 5686 5684 5681 5679 5676 5674 5671 5668 5665 5662 5659
5721 5721 5721 5722 5722 5722 5722 5722 5722 5721 5720 5718 5717 5716 5714 5713 5711 5709 5708 5706 5704 5702 5700 5698 5696 5694 5692 5690 5688 5686 5684 5682 5681 5679 5676 5674 5672 5669 5667 5665 5662 5659 5656
5716 5716 5716 5717 5717 5717 5717 5717 5716 5715 5714 5712 5711 5709 5707 5706 5704 5703 5701 5699 5698 5696 5694 5691 5690 5688 5686 5684 5682 5681 5679 5677 5675 5673 5671 5669 5667 5665 5664 5662 5659 5656 5653